Regional Weather Roundup
Issued by NWS

Home | Current Version | Previous Version | Graphics & Text | Print | Product List | Glossary On
Versions: 1 2 3 4 5 6 7 8 9 10 11 12 13 14 15 16 17 18 19 20 21 22 23 24 25 26 27 28 29 30 31 32 33 34 35 36 37 38 39 40 41 42 43 44 45 46 47 48 49 50
000
ASUS44 KMEG 250200
RWRTN
TENNESSEE HOURLY STATE WEATHER ROUNDUP
NATIONAL WEATHER SERVICE MEMPHIS TN
900 PM CDT TUE MAY 24 2016

TNZ002-004-019-021-049-052-054-088>092-250300-
WEST TENNESSEE

CITY           SKY/WX    TMP DP  RH WIND       PRES   REMARKS
MEMPHIS INTL   CLOUDY    71  65  81 NW9G20    30.10R
NWS MEMPHIS      N/A     71 N/A N/A MISG        N/A
JACKSON        CLOUDY    73  68  84 CALM      30.06R
DYERSBURG      CLOUDY    66  64  94 NW10G21   30.10R
UNION CITY     PTCLDY    68  68 100 SW6       30.06R
PARIS          CLEAR     72  61  68 CALM      30.07R
LEXINGTON      CLEAR     70  68  94 CALM      30.06S
$$

TNZ008-025-027-028-033-062-065-066-250300-
NORTH MIDDLE TENNESSEE

CITY           SKY/WX    TMP DP  RH WIND       PRES   REMARKS
NASHVILLE      PTCLDY    75  55  49 CALM      30.09S
CLARKSVILLE    PTCLDY    74  59  59 S3        30.06R
COOKEVILLE     PTCLDY    66  61  82 CALM      30.12R
CROSSVILLE     CLOUDY    66  52  60 CALM      30.17R
$$

TNZ061-075-076-078-094-096-097-250300-
SOUTH MIDDLE TENNESSEE

CITY           SKY/WX    TMP DP  RH WIND       PRES   REMARKS
TULLAHOMA      CLEAR     66  57  72 CALM      30.14R
WINCHESTER     CLEAR     72  55  56 CALM      30.13S
MCMINNVILLE    CLEAR     66  59  77 CALM      30.12S
COLUMBIA       CLEAR     72  72 100 CALM      30.09R
SHELBYVILLE    CLEAR     70  57  64 CALM      30.12R
$$

TNZ017-018-042-046-047-250300-
NORTHEAST TENNESSEE

CITY           SKY/WX    TMP DP  RH WIND       PRES   REMARKS
TRI CITIES     CLEAR     63  51  65 CALM      30.17R
$$

TNZ012-013-036-069-073-074-250300-
CENTRAL EAST TENNESSEE

CITY           SKY/WX    TMP DP  RH WIND       PRES   REMARKS
KNOXVILLE      PTCLDY    74  51  44 CALM      30.13R
OAK RIDGE      CLEAR     70  57  63 CALM      30.14R
GATLINBURG     CLEAR     63  52  67 CALM      30.14R
$$

TNZ083-085-099-250300-
SOUTHEAST TENNESSEE

CITY           SKY/WX    TMP DP  RH WIND       PRES   REMARKS
CHATTANOOGA    PTCLDY    76  55  48 S5        30.12R
$$

SKY/WX REPORTED AS FAIR MEANS FEW OR NO CLOUDS BELOW
12 THOUSAND FEET.





USA.gov is the U.S. government's official web portal to all federal, state and local government web resources and services.